Hourly Weather Lugovicy

Today, 6 May, Thursday

Time Temperature Precipitation Wind Pressure Humidity
00:00 +5°C° 0.3 mm 3 mps 733 mmHg 95%
01:00 +6°C° 0.3 mm 4 mps 733 mmHg 95%
02:00 +7°C° 0.3 mm 5 mps 732 mmHg 95%
03:00 +7°C° 0.9 mm 5 mps 731 mmHg 95%
04:00 +8°C° 0.9 mm 5 mps 730 mmHg 95%
05:00 +8°C° 0.9 mm 5 mps 729 mmHg 95%
06:00 +8°C° 1 mm 5 mps 729 mmHg 95%
07:00 +7°C° 1 mm 5 mps 729 mmHg 94%
08:00 +7°C° 1 mm 5 mps 728 mmHg 94%
09:00 +6°C° 0.9 mm 5 mps 729 mmHg 94%
10:00 +3°C° 0.9 mm 5 mps 730 mmHg 95%
11:00 +3°C° 0.9 mm 4 mps 732 mmHg 95%
12:00 +3°C° 0.4 mm 5 mps 732 mmHg 90%
13:00 +6°C° 0.4 mm 5 mps 733 mmHg 86%
14:00 +7°C° 0.4 mm 5 mps 733 mmHg 81%
15:00 +7°C° 0.3 mm 5 mps 733 mmHg 78%
16:00 +7°C° 0.3 mm 6 mps 734 mmHg 75%
17:00 +5°C° 0.3 mm 6 mps 734 mmHg 72%
18:00 +4°C° 0.1 mm 6 mps 734 mmHg 76%
19:00 +4°C° 0.1 mm 6 mps 734 mmHg 80%
20:00 +3°C° 0.1 mm 6 mps 735 mmHg 84%
21:00 +3°C° 0.1 mm 6 mps 735 mmHg 85%
22:00 +2°C° 0.1 mm 6 mps 735 mmHg 85%
23:00 +2°C° 0.1 mm 6 mps 736 mmHg 86%

Tomorrow, 7 May, Friday

Time Temperature Precipitation Wind Pressure Humidity
00:00 +2°C° 0 mm 6 mps 736 mmHg 87%
01:00 +2°C° 0 mm 5 mps 736 mmHg 87%
02:00 +1°C° 0 mm 5 mps 737 mmHg 88%
03:00 +1°C° 0.1 mm 5 mps 737 mmHg 87%
04:00 +1°C° 0.1 mm 5 mps 737 mmHg 87%
05:00 +2°C° 0.1 mm 5 mps 737 mmHg 87%
06:00 +2°C° 0.1 mm 5 mps 738 mmHg 83%
07:00 +3°C° 0.1 mm 5 mps 738 mmHg 80%
08:00 +3°C° 0.1 mm 5 mps 738 mmHg 76%
09:00 +6°C° 0 mm 5 mps 738 mmHg 67%
10:00 +7°C° 0 mm 5 mps 738 mmHg 58%
11:00 +9°C° 0 mm 5 mps 739 mmHg 49%
12:00 +9°C° 0.1 mm 5 mps 738 mmHg 49%
13:00 +9°C° 0.1 mm 5 mps 738 mmHg 49%
14:00 +11°C° 0.1 mm 4 mps 738 mmHg 49%
15:00 +10°C° 0.2 mm 4 mps 738 mmHg 56%
16:00 +9°C° 0.2 mm 3 mps 738 mmHg 64%
17:00 +9°C° 0.2 mm 3 mps 738 mmHg 72%
18:00 +8°C° 0.3 mm 3 mps 738 mmHg 79%
19:00 +7°C° 0.3 mm 2 mps 738 mmHg 85%
20:00 +6°C° 0.3 mm 2 mps 738 mmHg 92%
21:00 +5°C° 0.4 mm 2 mps 738 mmHg 93%
22:00 +5°C° 0.4 mm 2 mps 738 mmHg 93%
23:00 +5°C° 0.4 mm 2 mps 739 mmHg 94%

Day after tomorrow, 8 May, Saturday

Time Temperature Precipitation Wind Pressure Humidity
00:00 +4°C° 0.1 mm 2 mps 739 mmHg 94%
01:00 +4°C° 0.1 mm 2 mps 739 mmHg 95%
02:00 +3°C° 0.1 mm 2 mps 740 mmHg 95%
03:00 +3°C° 0 mm 2 mps 740 mmHg 94%
04:00 +2°C° 0 mm 2 mps 741 mmHg 93%
05:00 +2°C° 0 mm 2 mps 742 mmHg 93%
06:00 +3°C° 0 mm 2 mps 742 mmHg 86%
07:00 +4°C° 0 mm 2 mps 743 mmHg 79%
08:00 +5°C° 0 mm 2 mps 743 mmHg 72%
09:00 +6°C° 0 mm 2 mps 744 mmHg 65%
10:00 +8°C° 0 mm 3 mps 744 mmHg 58%
11:00 +9°C° 0 mm 3 mps 744 mmHg 51%
12:00 +9°C° 0 mm 3 mps 744 mmHg 48%
13:00 +10°C° 0 mm 2 mps 744 mmHg 46%
14:00 +12°C° 0 mm 2 mps 744 mmHg 44%
15:00 +10°C° 0 mm 2 mps 743 mmHg 48%
16:00 +10°C° 0 mm 2 mps 743 mmHg 52%
17:00 +9°C° 0 mm 2 mps 742 mmHg 57%
18:00 +8°C° 0.2 mm 2 mps 742 mmHg 65%
19:00 +7°C° 0.2 mm 3 mps 742 mmHg 74%
20:00 +5°C° 0.2 mm 3 mps 742 mmHg 83%
21:00 +5°C° 0.8 mm 3 mps 741 mmHg 87%
22:00 +4°C° 0.8 mm 4 mps 740 mmHg 91%
23:00 +4°C° 0.8 mm 4 mps 739 mmHg 95%

9 May, Sunday

Time Temperature Precipitation Wind Pressure Humidity
00:00 +5°C° 0.6 mm 4 mps 739 mmHg 96%
01:00 +5°C° 0.6 mm 3 mps 738 mmHg 97%
02:00 +7°C° 0.6 mm 3 mps 738 mmHg 98%
03:00 +8°C° 0.1 mm 3 mps 738 mmHg 97%
04:00 +9°C° 0.1 mm 3 mps 738 mmHg 97%
05:00 +10°C° 0.1 mm 4 mps 738 mmHg 96%
06:00 +11°C° 0 mm 4 mps 738 mmHg 94%
07:00 +12°C° 0 mm 4 mps 739 mmHg 92%
08:00 +13°C° 0 mm 4 mps 739 mmHg 90%
09:00 +14°C° 0 mm 4 mps 739 mmHg 86%
10:00 +16°C° 0 mm 3 mps 740 mmHg 83%
11:00 +17°C° 0 mm 3 mps 740 mmHg 80%
12:00 +17°C° 0.2 mm 2 mps 740 mmHg 80%
13:00 +17°C° 0.2 mm 2 mps 740 mmHg 80%
14:00 +18°C° 0.2 mm 1 mps 740 mmHg 81%
15:00 +19°C° 0.2 mm 1 mps 740 mmHg 82%
16:00 +19°C° 0.2 mm 1 mps 739 mmHg 84%
17:00 +18°C° 0.2 mm 2 mps 739 mmHg 85%
18:00 +17°C° 0.1 mm 2 mps 738 mmHg 89%
19:00 +17°C° 0.1 mm 2 mps 738 mmHg 92%
20:00 +16°C° 0.1 mm 2 mps 738 mmHg 95%

10 May, Monday

Time Temperature Precipitation Wind Pressure Humidity

11 May, Tuesday

Time Temperature Precipitation Wind Pressure Humidity
Show more

We Need Your Consent

Meteoprog and our Service Providers may store and access personal data such as cookies, device identifiers or other similar technologies on your device and process such data to personalise content and ads, as well as provide social media features and to analyse the traffic.

  • Store and/or access information on your device

    Cookies, device identifiers or other information can be stored or accessed on your device for the purposes indicated above.

  • Personalised ads and content, ad and content measurement, audience insights, and products development

    Ads and content can be personalised based on a profile. More data can be added to better personalise ads and content. Ad and content performance can be measured. Insights about the audience who saw the ads and content can be derived. Such data can be used to develop or improve user’s experience, systems and software.

By clicking ‘I Agree’ you will allow the use of indicated cookies, device identifiers, web beacons or other similar technologies. Your settings can be changed in the browser on your device.

For certain purposes, legitimate interests may be relied on, rather than consent. You can read more about this in our Privacy and Cookie Policy.